TimeCEST,TemperatureF,Dew PointF,Humidity,Sea Level PressureIn,VisibilityMPH,Wind Direction,Wind SpeedMPH,Gust SpeedMPH,PrecipitationIn,Events,Conditions,WindDirDegrees,DateUTC
12:20 AM,62.6,51.8,68,29.89,6.2,SW,8.1,-,N/A,,Mostly Cloudy,230,2013-05-24 22:20:00
12:50 AM,60.8,50.0,68,29.89,6.2,West,9.2,-,N/A,,Mostly Cloudy,280,2013-05-24 22:50:00
1:20 AM,57.2,50.0,77,29.89,6.2,West,11.5,-,N/A,Rain,Light Rain,270,2013-05-24 23:20:00
1:50 AM,55.4,50.0,82,29.89,6.2,WNW,8.1,-,N/A,Rain,Light Rain,300,2013-05-24 23:50:00
2:20 AM,55.4,51.8,88,29.89,6.2,West,6.9,-,N/A,Rain,Light Rain,270,2013-05-25 00:20:00
2:50 AM,55.4,51.8,88,29.89,6.2,South,3.5,-,N/A,Rain,Light Rain,170,2013-05-25 00:50:00
3:20 AM,55.4,51.8,88,29.89,6.2,South,3.5,-,N/A,,Mostly Cloudy,170,2013-05-25 01:20:00
3:50 AM,55.4,50.0,82,29.89,6.2,Variable,2.3,-,N/A,,Mostly Cloudy,0,2013-05-25 01:50:00
4:20 AM,57.2,48.2,72,29.89,6.2,WNW,4.6,-,N/A,,Mostly Cloudy,290,2013-05-25 02:20:00
4:50 AM,55.4,48.2,77,29.89,6.2,NW,5.8,-,N/A,,Mostly Cloudy,310,2013-05-25 02:50:00
5:20 AM,55.4,46.4,72,29.89,6.2,WNW,4.6,-,N/A,,Mostly Cloudy,300,2013-05-25 03:20:00
5:50 AM,55.4,48.2,77,29.89,6.2,Variable,2.3,-,N/A,,Mostly Cloudy,0,2013-05-25 03:50:00
6:20 AM,55.4,48.2,77,29.89,6.2,SSE,1.2,-,N/A,,Mostly Cloudy,150,2013-05-25 04:20:00
6:50 AM,57.2,48.2,72,29.89,6.2,South,1.2,-,N/A,,Mostly Cloudy,180,2013-05-25 04:50:00
7:20 AM,57.2,48.2,72,29.89,6.2,Variable,1.2,-,N/A,,Scattered Clouds,0,2013-05-25 05:20:00
7:50 AM,60.8,48.2,63,29.89,6.2,South,3.5,-,N/A,,Mostly Cloudy,170,2013-05-25 05:50:00
8:20 AM,60.8,46.4,59,29.89,6.2,WSW,8.1,-,N/A,,Scattered Clouds,240,2013-05-25 06:20:00
8:50 AM,60.8,44.6,55,29.92,6.2,WSW,15.0,-,N/A,,Scattered Clouds,240,2013-05-25 06:50:00
9:20 AM,60.8,46.4,59,29.92,6.2,WSW,12.7,-,N/A,,Mostly Cloudy,240,2013-05-25 07:20:00
9:50 AM,60.8,46.4,59,29.92,6.2,SSW,9.2,-,N/A,,Mostly Cloudy,210,2013-05-25 07:50:00
10:20 AM,60.8,44.6,55,29.92,6.2,SSW,12.7,-,N/A,,Mostly Cloudy,210,2013-05-25 08:20:00
10:50 AM,62.6,48.2,59,29.92,6.2,SW,11.5,-,N/A,,Mostly Cloudy,230,2013-05-25 08:50:00
11:20 AM,62.6,46.4,55,29.92,6.2,WSW,15.0,-,N/A,,Mostly Cloudy,240,2013-05-25 09:20:00
11:50 AM,62.6,48.2,59,29.92,6.2,WSW,16.1,-,N/A,,Mostly Cloudy,240,2013-05-25 09:50:00
12:20 PM,62.6,46.4,55,29.92,6.2,WSW,16.1,-,N/A,,Mostly Cloudy,240,2013-05-25 10:20:00
12:50 PM,62.6,50.0,63,29.92,6.2,WSW,12.7,-,N/A,,Mostly Cloudy,250,2013-05-25 10:50:00
1:20 PM,62.6,48.2,59,29.92,6.2,West,18.4,-,N/A,,Mostly Cloudy,260,2013-05-25 11:20:00
1:50 PM,62.6,46.4,55,29.92,6.2,WSW,18.4,-,N/A,,Mostly Cloudy,240,2013-05-25 11:50:00
2:20 PM,62.6,46.4,55,29.92,6.2,WSW,18.4,-,N/A,,Scattered Clouds,240,2013-05-25 12:20:00
2:50 PM,64.4,48.2,56,29.92,6.2,WSW,19.6,-,N/A,,Scattered Clouds,250,2013-05-25 12:50:00
3:20 PM,64.4,44.6,49,29.92,6.2,WSW,19.6,-,N/A,,Scattered Clouds,250,2013-05-25 13:20:00
3:50 PM,64.4,46.4,52,29.92,6.2,WSW,17.3,-,N/A,,Scattered Clouds,250,2013-05-25 13:50:00
4:20 PM,64.4,44.6,49,29.92,6.2,West,18.4,-,N/A,,Scattered Clouds,260,2013-05-25 14:20:00
4:50 PM,-9999,-9999,N/A,-9999,6.2,WSW,16.1,-,N/A,,Unknown,240,2013-05-25 14:50:00
5:20 PM,62.6,46.4,55,29.92,6.2,SW,15.0,27.6,N/A,,Mostly Cloudy,230,2013-05-25 15:20:00
5:50 PM,64.4,44.6,49,29.92,6.2,WSW,16.1,-,N/A,,Mostly Cloudy,240,2013-05-25 15:50:00
6:20 PM,62.6,46.4,55,29.89,6.2,WSW,16.1,-,N/A,,Mostly Cloudy,250,2013-05-25 16:20:00
6:50 PM,64.4,44.6,49,29.89,6.2,WSW,13.8,-,N/A,,Scattered Clouds,250,2013-05-25 16:50:00
7:20 PM,62.6,46.4,55,29.89,6.2,WSW,13.8,-,N/A,,Scattered Clouds,240,2013-05-25 17:20:00
7:50 PM,60.8,51.8,72,29.89,6.2,WNW,8.1,-,N/A,Rain,Light Rain,290,2013-05-25 17:50:00
8:20 PM,55.4,51.8,88,29.89,2.5,West,9.2,-,N/A,Rain,Rain,280,2013-05-25 18:20:00
8:50 PM,57.2,53.6,88,29.89,6.2,West,9.2,-,N/A,,Mostly Cloudy,260,2013-05-25 18:50:00
9:20 PM,53.6,50.0,88,29.92,4.3,WNW,11.5,-,N/A,Rain,Light Rain,300,2013-05-25 19:20:00
9:50 PM,53.6,50.0,88,29.92,4.3,WNW,8.1,-,N/A,Rain,Light Rain,300,2013-05-25 19:50:00
10:20 PM,55.4,51.8,88,29.89,6.2,SW,6.9,-,N/A,,Light Drizzle,220,2013-05-25 20:20:00
10:50 PM,53.6,50.0,88,29.92,6.2,South,3.5,-,N/A,,Scattered Clouds,190,2013-05-25 20:50:00
11:20 PM,57.2,51.8,82,29.89,6.2,SSW,6.9,-,N/A,,Scattered Clouds,200,2013-05-25 21:20:00
11:50 PM,57.2,51.8,82,29.92,6.2,SSW,6.9,-,N/A,,Scattered Clouds,210,2013-05-25 21:50:00